Weather History for 03768 - October, 2012

Change the Weather History Date:

Friday, October 19, 2012

  Actual Average Record
Temperature  
Mean Temperature 52 °F -  
Max Temperature 54 °F - - ()
Min Temperature 49 °F - - ()
Degree Days  
Heating Degree Days 14    
Growing Degree Days 2 (Base 50)    
Moisture  
Dew Point 52 °F    
Average Humidity 96    
Maximum Humidity 100    
Minimum Humidity 92    
Precipitation  
Precipitation 0.16 in - - ()
Sea Level Pressure  
Sea Level Pressure 29.76 in    
Wind  
Wind Speed 3 mph ()    
Max Wind Speed 9 mph    
Max Gust Speed -    
Visibility 4.5 miles    
Events Rain    
T = Trace of Precipitation, MM = Missing Value Source: Averaged Metar Reports

Daily Weather History Graph

Daily Weather History Graph

Search for Another Location

Airport or City:

Trip Planner

Search our weather history database for the weather conditions in past years. The results will help you decide how hot, cold, wet, or windy it might be!

Date:

Astronomy

Oct. 19, 2012 Rise Set
Actual Time 7:34 AM BST 6:01 PM BST
Civil Twilight 7:00 AM BST 6:34 PM BST
Nautical Twilight 6:21 AM BST 7:13 PM BST
Astronomical Twilight 5:43 AM BST 7:51 PM BST
Moon 12:27 PM BST (10/19) 8:58 PM BST (10/19)
Length of Visible Light 11h 34m
Length of Day
10h 27m
Waxing Crescent, 21% of the Moon is Illuminated
Oct 19
Waxing Crescent
Oct 22
First Quarter
Oct 29
Full
Nov 7
Last Quarter
Nov 13
New

Hourly Weather History & Observations

Time (BST) Temp. Dew Point Humidity Pressure Visibility Wind Dir Wind Speed Gust Speed Precip Events Conditions
3:50 AM 51 °F 50 °F 94% 29.73 in 1 mi ESE 1.2 mph - -   Scattered Clouds
6:50 AM 51 °F 51 °F 98% 29.74 in 8 mi East 3.5 mph - -   Mostly Cloudy
7:20 AM 51.8 °F 50.0 °F 94% 29.74 in 6.2 mi ESE 2.3 mph - N/A   Scattered Clouds
7:50 AM 51.8 °F 50.0 °F 94% 29.74 in 6.2 mi Variable 2.3 mph - N/A   Scattered Clouds
8:20 AM 51.8 °F 50.0 °F 94% 29.77 in 6.2 mi Variable 3.5 mph - N/A   Scattered Clouds
8:50 AM 51.8 °F 51.8 °F 100% 29.77 in 6.2 mi SE 2.3 mph - N/A   Scattered Clouds
9:20 AM 53.6 °F 51.8 °F 94% 29.77 in 6.2 mi Variable 3.5 mph - N/A   Scattered Clouds
9:50 AM 53 °F 53 °F 98% 29.76 in 7 mi North 3.5 mph - -   Scattered Clouds
9:50 AM 53.6 °F 51.8 °F 94% 29.77 in 6.2 mi NNW 2.3 mph - N/A   Mostly Cloudy
10:20 AM 53.6 °F 51.8 °F 94% 29.77 in 6.2 mi NNE 2.3 mph - N/A   Mostly Cloudy
10:50 AM 53.6 °F 51.8 °F 94% 29.77 in 3.1 mi ENE 3.5 mph - N/A   Mostly Cloudy
11:20 AM 53.6 °F 53.6 °F 100% 29.77 in 2.5 mi ENE 3.5 mph - N/A   Mostly Cloudy
11:50 AM 53.6 °F 51.8 °F 94% 29.77 in 2.5 mi ESE 3.5 mph - N/A   Light Drizzle
12:20 PM 53.6 °F 53.6 °F 100% 29.77 in 5.6 mi ESE 2.3 mph - N/A   Light Drizzle
12:50 PM 54 °F 53 °F 96% 29.76 in 6 mi SSW 1.2 mph - -   Mostly Cloudy
12:50 PM 53.6 °F 51.8 °F 94% 29.74 in 5.6 mi SW 1.2 mph - N/A Rain Light Drizzle
1:20 PM 53.6 °F 53.6 °F 100% 29.74 in 6.2 mi NNE 3.5 mph - N/A   Mostly Cloudy
1:50 PM 53.6 °F 53.6 °F 100% 29.74 in 6.2 mi NNE 2.3 mph - N/A   Mostly Cloudy
2:20 PM 53.6 °F 51.8 °F 94% 29.74 in - East 8.1 mph - N/A Rain Rain
2:50 PM 53.6 °F 51.8 °F 94% 29.77 in - East 8.1 mph - N/A Rain Rain
3:20 PM 53.6 °F 51.8 °F 94% 29.74 in 5.6 mi ENE 9.2 mph - N/A   Mostly Cloudy
3:50 PM 54 °F 52 °F 92% 29.76 in 4 mi East 2.3 mph - -   Mostly Cloudy
3:50 PM 53.6 °F 51.8 °F 94% 29.77 in 5.0 mi East 3.5 mph - N/A   Drizzle
4:20 PM 53.6 °F 51.8 °F 94% 29.74 in 3.7 mi NE 6.9 mph - N/A Rain Light Rain
4:50 PM 53.6 °F 51.8 °F 94% 29.74 in 2.5 mi North 4.6 mph - N/A Rain Rain
5:20 PM 51.8 °F 51.8 °F 100% 29.74 in 1.8 mi North 4.6 mph - N/A Rain Light Rain
5:50 PM 53.6 °F 51.8 °F 94% 29.74 in - North 5.8 mph - N/A Rain Rain
6:20 PM 51.8 °F 51.8 °F 100% 29.74 in 5.0 mi North 4.6 mph - N/A   Light Drizzle
6:50 PM 53 °F 52 °F 96% 29.77 in 2 mi North 3.5 mph - -   Mostly Cloudy
6:50 PM 53.6 °F 51.8 °F 94% 29.77 in 1.9 mi North 3.5 mph - N/A   Light Drizzle
7:20 PM 51.8 °F 51.8 °F 100% 29.77 in - North 4.6 mph - N/A   Light Drizzle
7:50 PM 51.8 °F 51.8 °F 100% 29.77 in - NNW 5.8 mph - N/A   Light Drizzle
8:20 PM 51.8 °F 51.8 °F 100% 29.77 in 2.2 mi NW 4.6 mph - N/A   Light Drizzle
8:50 PM 51.8 °F 51.8 °F 100% 29.77 in 2.2 mi NNW 4.6 mph - N/A   Light Drizzle
9:20 PM 51.8 °F 51.8 °F 100% 29.77 in - NW 9.2 mph - N/A   Light Drizzle
9:50 PM 53 °F 52 °F 94% 29.81 in 3 mi WNW 4.6 mph - -   Overcast